[[{"header":{"parameterUnit":"m.s-1","parameterCategory":1,"la1":30.2991,"la2":30.254,"lo1":-89.0895,"lo2":-89.0444,"dy":0.0017,"dx":0.0017,"nx":28,"ny":28,"refTime":"2023-11-14T09:00:00:Z","depth":0,"parameterNumber":2,"parameterNumberName":"U-component_of_WINDS"},"data":[0,0,0,0,0,0,0,0,0,0,0,0,0,0,0,0,0,0,0,0,0,0,0,0,0,0,0,0,0,0,0,0,0,0,0,0,0,0,0,0,0,0,0,0,0,0,0,0,0,0,0,0,0,0,0,0,0,0,-8.3844,-8.3845,0,-8.3934,-8.3935,-8.3936,-8.378,-8.3775,-8.3769,-8.3764,-8.385,-8.3857,-8.3864,0,0,0,0,0,0,0,0,0,0,0,0,0,-8.3531,-8.3537,-8.3844,-8.3845,-8.3847,-8.3934,-8.3935,-8.3937,-8.3781,-8.3774,-8.3768,-8.3762,-8.3848,-8.3856,-8.3865,0,0,0,0,0,0,0,0,0,0,0,0,0,-8.3648,-8.3539,-8.3844,-8.378,-8.3775,-8.3934,-8.3935,-8.3937,-8.3782,-8.3774,-8.3766,-8.3759,-8.3845,-8.3855,-8.3866,-8.409,0,0,-8.3899,-8.3904,0,0,0,0,0,0,0,0,-8.3642,-8.366,-8.3788,-8.3784,-8.3779,-8.3838,-8.3856,-8.3988,-8.3784,-8.3779,-8.3764,-8.3755,-8.3852,-8.3862,-8.3896,-8.4094,-8.4098,-8.39,-8.3906,-8.3911,-8.3914,0,0,0,0,0,0,0,-8.3634,-8.3655,-8.388,-8.379,-8.3785,-8.3744,-8.3752,-8.388,-8.3858,-8.3779,-8.3768,-8.3781,-8.3848,-8.3886,-8.3896,-8.4099,-8.3899,-8.3909,-8.3916,-8.392,-8.4484,-8.4492,0,0,0,0,0,0,-8.3635,-8.3649,-8.3877,-8.3882,-8.369,-8.3756,-8.3765,-8.3827,-8.3857,-8.3854,-8.3788,-8.3773,-8.3871,-8.3884,-8.3899,-8.4162,-8.3911,-8.3921,-8.3927,-8.4476,-8.4486,-8.4495,0,0,0,0,0,0,-8.3629,-8.3657,-8.3873,-8.3763,-8.3787,-8.377,-8.3841,-8.3833,-8.387,-8.3863,-8.3858,-8.3831,-8.3865,-8.3884,-8.4044,-8.4163,-8.3926,-8.3936,-8.4466,-8.4479,-8.4491,-8.4691,0,0,0,0,0,0,-8.362,-8.3655,-8.3742,-8.3766,-8.3794,-8.4019,-8.3848,-8.384,-8.389,-8.3872,-8.3902,-8.3899,-8.3861,-8.4029,-8.4055,-8.4173,-8.3944,-8.4455,-8.4472,-8.4487,-8.4673,-8.4709,-8.4739,0,0,0,0,0,-8.361,-8.3793,-8.3747,-8.3775,-8.3902,-8.4026,-8.4042,-8.3995,-8.39,-8.3986,-8.3981,-8.3898,-8.4146,-8.4046,-8.4074,-8.4198,-8.4447,-8.4467,-8.4485,-8.4659,-8.4702,-8.4738,0,0,0,0,0,0,-8.3781,-8.3795,-8.3744,-8.3942,-8.3985,-8.4,-8.4106,-8.4043,-8.4111,-8.4092,-8.4029,-8.4037,-8.4209,-8.4219,-8.4108,-8.4416,-8.428,-8.4306,-8.4402,-8.4443,-8.4476,-8.4468,-8.3953,0,0,0,0,0,-8.3842,-8.3944,-8.395,-8.4124,-8.4148,-8.4125,-8.4177,-8.4138,-8.4178,-8.4194,-8.4201,-8.4242,-8.4328,-8.4387,-8.4466,-8.4675,-8.4678,-8.4774,-8.4806,-8.4833,-8.4856,-8.4965,-8.5007,-8.4558,-8.4558,-8.4558,0,0,-8.3968,-8.3989,-8.4057,-8.4159,-8.4187,-8.4292,-8.414,-8.4257,-8.4334,-8.4211,-8.4363,-8.437,-8.4411,-8.4596,-8.4678,-8.461,-8.498,-8.4858,-8.488,-8.4887,-8.4989,-8.5031,-8.5069,-8.4571,-8.4569,-8.4567,0,0,-8.4252,-8.4279,-8.4426,-8.4459,-8.4504,-8.4487,-8.4523,-8.4549,-8.4549,-8.4702,-8.4612,-8.47,-8.4851,-8.4884,-8.492,-8.5218,-8.5143,-8.5245,-8.5416,-8.5523,-8.5558,-8.5589,-8.5693,-8.5731,-8.5268,-8.5269,-8.5269,0,-8.4402,-8.4559,-8.4509,-8.4634,-8.468,-8.4577,-8.4724,-8.4757,-8.4826,-8.4859,-8.4783,-8.497,-8.499,-8.5181,-8.5254,-8.5287,-8.5324,-8.524,-8.5558,-8.5588,-8.5616,-8.5714,-8.5754,-8.528,-8.5279,-8.5278,-8.5277,0,-8.4741,-8.4851,-8.4964,-8.5035,-8.5095,-8.523,-8.5198,-8.5264,-8.522,-8.5211,-8.5366,-8.5387,-8.5469,-8.5511,-8.5469,-8.5696,-8.5652,-8.5569,-8.543,-8.5672,-8.5763,-8.58,-8.5298,-8.5293,-8.529,-8.5287,0,0,-8.5132,-8.5177,-8.5219,-8.5249,-8.5293,-8.5375,-8.5505,-8.5587,-8.5644,-8.5695,-8.58,-8.5931,-8.5854,-8.5895,-8.5856,-8.595,-8.6182,-8.5854,-8.5854,-8.5912,-8.6431,-8.6491,-8.6536,-8.6134,-8.6141,-8.6147,-8.6426,0,-8.5413,-8.5639,-8.5598,-8.5817,-8.5916,-8.5821,-8.5933,-8.5971,-8.5966,-8.6048,-8.6041,-8.6134,-8.6026,-8.605,-8.614,-8.6135,-8.6285,-8.6114,-8.6228,-8.6233,-8.6218,-8.6584,-8.6649,-8.6911,-8.6462,-8.6468,-8.6472,0,-8.5769,-8.5836,-8.6066,-8.6094,-8.6134,-8.6236,-8.6307,-8.6388,-8.6428,-8.6417,-8.6465,-8.6408,-8.6534,-8.6397,-8.6569,-8.6454,-8.6498,-8.6503,-8.6512,-8.6518,-8.6365,-8.6597,-8.6994,-8.7033,-8.6528,-8.6524,-8.652,0,-8.6029,-8.6177,-8.6333,-8.6362,-8.6399,-8.6473,-8.6491,-8.6524,-8.6576,-8.6638,-8.667,-8.6746,-8.6786,-8.6845,-8.6808,-8.6712,-8.6985,-8.6846,-8.6977,-8.6978,-8.7036,-8.7033,-8.7443,-8.7071,-8.707,-8.707,-8.7069,0,-8.6345,-8.6488,-8.645,-8.6546,-8.6703,-8.6655,-8.6811,-8.6817,-8.6847,-8.694,-8.6862,-8.6951,-8.6899,-8.6983,-8.6955,-8.71,-8.712,-8.7112,-8.7102,-8.7118,-8.7118,-8.7143,-8.7123,-8.708,-8.7078,-8.7076,-8.7074,0,-8.666,-8.6641,-8.6804,-8.6827,-8.6836,-8.695,-8.6968,-8.7056,-8.7046,-8.7165,-8.719,-8.7173,-8.7268,-8.7238,-8.734,-8.7321,-8.7504,-8.7472,-8.7491,-8.7482,-8.7614,-8.7601,-8.8052,-8.8108,-8.7703,-8.7707,-8.771,0,-8.6861,-8.6969,-8.7005,-8.7063,-8.7088,-8.7183,-8.7235,-8.7192,-8.725,-8.7304,-8.7385,-8.7474,-8.7542,-8.7697,-8.7692,-8.7769,-8.7737,-8.789,-8.7747,-8.7759,-8.7735,-8.7728,-8.7737,-8.7917,-8.7922,-8.7926,-8.7929,0,-8.7219,-8.7204,-8.7285,-8.7364,-8.743,-8.7489,-8.754,-8.7592,-8.7551,-8.762,-8.7717,-8.7771,-8.7875,-8.7963,-8.8033,-8.8048,-8.7981,-8.7975,-8.8008,-8.8023,-8.8028,-8.8024,-8.7565,-8.7963,-8.796,-8.7957,-8.7955,-8.7954,-8.7481,-8.7572,-8.7612,-8.7704,-8.7739,-8.7789,-8.7872,-8.7874,-8.7955,-8.8039,-8.8008,-8.8119,-8.8155,-8.8242,-8.8268,-8.8352,-8.8292,-8.8343,-8.8354,-8.8366,-8.8382,-8.8018,-8.8365,-8.8364,-8.8363,-8.8362,-8.8361,0,-8.7832,-8.7853,-8.7939,-8.8015,-8.8087,-8.8022,-8.8075,-8.8139,-8.8239,-8.828,-8.8349,-8.846,-8.8545,-8.8548,-8.8627,-8.8693,-8.8664,-8.8715,-8.8707,-8.8712,-8.8432,-8.8393,-8.8737,-8.8737,-8.8737,-8.8737,-8.8737,-8.8737,-8.8023,-8.8174,-8.8164,-8.8331,-8.835,-8.846,-8.8496,-8.8541,-8.8573,-8.8701,-8.8772,-8.8775,-8.88,-8.888,-8.8954,-8.8952,-8.8983,-8.9045,-8.9031,-8.8769,-8.8732,-8.8696,-8.8659,-8.9053,-8.9053,-8.9303,-8.9305,-8.9307]},{"header":{"parameterUnit":"m.s-1","parameterCategory":1,"la1":30.2991,"la2":30.254,"lo1":-89.0895,"lo2":-89.0444,"dy":0.0017,"dx":0.0017,"nx":28,"ny":28,"refTime":"2023-11-14T09:00:00:Z","depth":0,"parameterNumber":3,"parameterNumberName":"V-component_of_WINDS"},"data":[0,0,0,0,0,0,0,0,0,0,0,0,0,0,0,0,0,0,0,0,0,0,0,0,0,0,0,0,0,0,0,0,0,0,0,0,0,0,0,0,0,0,0,0,0,0,0,0,0,0,0,0,0,0,0,0,0,0,-4.7525,-4.7525,0,-4.7478,-4.7477,-4.7477,-4.7464,-4.7464,-4.7465,-4.7465,-4.7411,-4.741,-4.7408,0,0,0,0,0,0,0,0,0,0,0,0,0,-4.7599,-4.7598,-4.7525,-4.7525,-4.7524,-4.7478,-4.7477,-4.7476,-4.7464,-4.7464,-4.7465,-4.7465,-4.7412,-4.741,-4.7408,0,0,0,0,0,0,0,0,0,0,0,0,0,-4.756,-4.7597,-4.7525,-4.7512,-4.7511,-4.7478,-4.7477,-4.7476,-4.7464,-4.7464,-4.7465,-4.7465,-4.7412,-4.741,-4.7407,-4.7383,0,0,-4.74,-4.7399,0,0,0,0,0,0,0,0,-4.7563,-4.7558,-4.7515,-4.7513,-4.7511,-4.7477,-4.7483,-4.7445,-4.7464,-4.7481,-4.7465,-4.7465,-4.7433,-4.7428,-4.7418,-4.738,-4.7378,-4.7399,-4.7398,-4.7397,-4.7396,0,0,0,0,0,0,0,-4.7565,-4.756,-4.7506,-4.7514,-4.7512,-4.7507,-4.7502,-4.7476,-4.7455,-4.748,-4.7479,-4.7474,-4.7432,-4.7421,-4.7417,-4.7377,-4.7399,-4.7397,-4.7396,-4.7395,-4.7312,-4.7311,0,0,0,0,0,0,-4.7571,-4.7562,-4.7508,-4.7505,-4.7539,-4.7505,-4.75,-4.7488,-4.7455,-4.7451,-4.7473,-4.7473,-4.7425,-4.742,-4.7415,-4.7381,-4.7397,-4.7394,-4.7393,-4.7313,-4.7312,-4.7311,0,0,0,0,0,0,-4.7573,-4.7566,-4.751,-4.7533,-4.7526,-4.7503,-4.749,-4.7487,-4.7476,-4.745,-4.7446,-4.7467,-4.7425,-4.7419,-4.739,-4.7379,-4.7393,-4.7391,-4.7314,-4.7313,-4.7312,-4.7316,0,0,0,0,0,0,-4.7575,-4.7567,-4.7559,-4.7533,-4.7524,-4.7488,-4.749,-4.7485,-4.7472,-4.7471,-4.7443,-4.7438,-4.7425,-4.7394,-4.7388,-4.7376,-4.7389,-4.7314,-4.7313,-4.7312,-4.7316,-4.7315,-4.7314,0,0,0,0,0,-4.7578,-4.7562,-4.7559,-4.7552,-4.7514,-4.7487,-4.7482,-4.7468,-4.7471,-4.7462,-4.7445,-4.7439,-4.7382,-4.7391,-4.7384,-4.7371,-4.7315,-4.7313,-4.7312,-4.7317,-4.7315,-4.7314,0,0,0,0,0,0,-4.7586,-4.7558,-4.7555,-4.7531,-4.7512,-4.7485,-4.7473,-4.7468,-4.7446,-4.7446,-4.7429,-4.7422,-4.7394,-4.738,-4.7391,-4.7344,-4.7348,-4.7345,-4.7354,-4.7352,-4.7351,-4.7354,-4.7387,0,0,0,0,0,-4.7586,-4.7568,-4.7544,-4.7524,-4.7515,-4.7496,-4.7484,-4.7475,-4.7454,-4.7445,-4.7426,-4.7404,-4.7381,-4.7366,-4.7343,-4.7314,-4.7306,-4.7302,-4.73,-4.7299,-4.7296,-4.7276,-4.7273,-4.7306,-4.7306,-4.7306,0,0,-4.7583,-4.7566,-4.7556,-4.7526,-4.751,-4.749,-4.7489,-4.7469,-4.7452,-4.7441,-4.7413,-4.7398,-4.7373,-4.7343,-4.7329,-4.733,-4.7285,-4.7297,-4.7297,-4.7294,-4.7275,-4.7271,-4.7269,-4.7305,-4.7306,-4.7306,0,0,-4.7569,-4.7555,-4.7537,-4.7521,-4.7497,-4.7484,-4.7479,-4.7453,-4.7443,-4.7415,-4.7406,-4.7385,-4.7346,-4.7327,-4.7313,-4.7288,-4.7281,-4.7281,-4.7274,-4.7254,-4.7252,-4.7249,-4.7238,-4.7234,-4.7279,-4.7279,-4.7279,0,-4.7569,-4.754,-4.7527,-4.7507,-4.7492,-4.7482,-4.7461,-4.7446,-4.7415,-4.7404,-4.7407,-4.7356,-4.7338,-4.7302,-4.7296,-4.7285,-4.7277,-4.7284,-4.7254,-4.7251,-4.7248,-4.7237,-4.7233,-4.7279,-4.7279,-4.7279,-4.7279,0,-4.754,-4.752,-4.7507,-4.7479,-4.7463,-4.7442,-4.7424,-4.7409,-4.74,-4.7386,-4.7355,-4.7333,-4.7304,-4.7295,-4.7287,-4.7257,-4.7258,-4.7258,-4.7261,-4.7245,-4.7234,-4.723,-4.7279,-4.7279,-4.7279,-4.7279,0,0,-4.7531,-4.7494,-4.749,-4.7475,-4.7447,-4.743,-4.7407,-4.738,-4.7366,-4.7345,-4.7323,-4.729,-4.7287,-4.7271,-4.726,-4.7243,-4.7221,-4.7243,-4.7242,-4.7238,-4.7183,-4.7183,-4.7178,-4.7217,-4.7216,-4.7215,-4.7184,0,-4.7512,-4.7473,-4.7459,-4.7426,-4.7405,-4.7394,-4.7373,-4.7352,-4.7338,-4.7316,-4.7299,-4.7274,-4.7275,-4.7264,-4.7247,-4.7228,-4.7209,-4.723,-4.7193,-4.7192,-4.7198,-4.7173,-4.7173,-4.7145,-4.718,-4.7179,-4.7179,0,-4.7485,-4.7463,-4.7428,-4.74,-4.7391,-4.7373,-4.7345,-4.7326,-4.73,-4.729,-4.727,-4.726,-4.7232,-4.7238,-4.7198,-4.7212,-4.7195,-4.7183,-4.7182,-4.7176,-4.7184,-4.7164,-4.7136,-4.7131,-4.7172,-4.7173,-4.7173,0,-4.7479,-4.7441,-4.7415,-4.7403,-4.737,-4.7357,-4.7342,-4.7317,-4.7301,-4.7276,-4.7264,-4.7236,-4.722,-4.7197,-4.7178,-4.7185,-4.7138,-4.7143,-4.7126,-4.7126,-4.7116,-4.7117,-4.7083,-4.7109,-4.7109,-4.7109,-4.7109,0,-4.7458,-4.7437,-4.7411,-4.7395,-4.7369,-4.7352,-4.7326,-4.731,-4.7287,-4.7265,-4.7253,-4.7232,-4.7209,-4.7184,-4.7168,-4.7135,-4.7129,-4.7118,-4.7113,-4.7118,-4.7119,-4.7106,-4.7106,-4.7108,-4.7108,-4.7109,-4.7109,0,-4.7448,-4.743,-4.74,-4.737,-4.7362,-4.7344,-4.7318,-4.7299,-4.7283,-4.7255,-4.7247,-4.7222,-4.7191,-4.717,-4.7131,-4.712,-4.7083,-4.7081,-4.7092,-4.709,-4.7073,-4.7074,-4.7028,-4.7019,-4.7054,-4.7054,-4.7054,0,-4.7435,-4.7418,-4.7386,-4.7371,-4.7357,-4.7333,-4.7316,-4.7297,-4.7279,-4.7247,-4.7231,-4.72,-4.7175,-4.7126,-4.7102,-4.707,-4.7065,-4.7051,-4.706,-4.7064,-4.7061,-4.7062,-4.7058,-4.7049,-4.7049,-4.7049,-4.7049,0,-4.7414,-4.7405,-4.7382,-4.7355,-4.7335,-4.7312,-4.7289,-4.7277,-4.7253,-4.7233,-4.7202,-4.7182,-4.7141,-4.7109,-4.7075,-4.7057,-4.7047,-4.7046,-4.704,-4.7043,-4.7049,-4.7043,-4.7086,-4.7047,-4.7047,-4.7047,-4.7047,-4.7047,-4.74,-4.7383,-4.7358,-4.7331,-4.7312,-4.7289,-4.727,-4.7251,-4.7226,-4.7192,-4.7182,-4.7148,-4.7119,-4.7073,-4.7054,-4.7025,-4.7026,-4.7018,-4.7015,-4.7013,-4.7012,-4.7055,-4.7019,-4.7019,-4.7019,-4.7019,-4.7019,0,-4.7376,-4.7359,-4.7334,-4.7302,-4.728,-4.7275,-4.7248,-4.7229,-4.7201,-4.7175,-4.7149,-4.7111,-4.7079,-4.7052,-4.7018,-4.7,-4.6995,-4.6992,-4.6992,-4.6987,-4.7014,-4.7022,-4.6996,-4.6996,-4.6996,-4.6996,-4.6996,-4.6996,-4.7361,-4.7331,-4.7319,-4.7277,-4.7259,-4.7228,-4.7212,-4.719,-4.717,-4.7128,-4.7102,-4.7085,-4.7057,-4.702,-4.6989,-4.6981,-4.6968,-4.6966,-4.6957,-4.6983,-4.6985,-4.6988,-4.6994,-4.6963,-4.6963,-4.6931,-4.693,-4.693]}]]